Time,TemperatureF,DewpointF,PressureIn,WindDirection,WindDirectionDegrees,WindSpeedMPH,WindSpeedGustMPH,Humidity,HourlyPrecipIn,Conditions,Clouds,dailyrainin,SoftwareType,DateUTC
2013-03-15 00:02:00,6.0,-10.0,30.11,NE,42,0.0,2.0,47,0.00,,,0.00,,2013-03-15 08:02:00,
2013-03-15 00:12:00,6.0,-10.0,30.11,NE,42,0.0,2.0,47,0.00,,,0.00,,2013-03-15 08:12:00,
2013-03-15 00:22:00,6.0,-10.0,30.11,NNW,333,0.0,1.0,47,0.00,,,0.00,,2013-03-15 08:22:00,
2013-03-15 00:32:00,6.0,-10.0,30.11,NNW,331,0.0,2.0,47,0.00,,,0.00,,2013-03-15 08:32:00,
2013-03-15 00:42:00,6.0,-10.0,30.11,NNW,331,0.0,2.0,47,0.00,,,0.00,,2013-03-15 08:42:00,
2013-03-15 00:52:00,4.0,-10.0,30.11,NNW,332,0.0,0.0,51,0.00,,,0.00,,2013-03-15 08:52:00,
2013-03-15 01:02:00,3.0,-10.0,30.10,NNW,332,0.0,1.0,53,0.00,,,0.00,,2013-03-15 09:02:00,
2013-03-15 01:11:00,3.0,-10.0,30.10,NNW,332,0.0,1.0,53,0.00,,,0.00,,2013-03-15 09:11:00,
2013-03-15 01:21:00,2.0,-11.0,30.10,NNW,332,0.0,0.0,54,0.00,,,0.00,,2013-03-15 09:21:00,
2013-03-15 01:33:00,2.0,-11.0,30.10,NNW,332,0.0,0.0,54,0.00,,,0.00,,2013-03-15 09:33:00,
2013-03-15 01:42:00,2.0,-11.0,30.10,NNW,332,0.0,0.0,54,0.00,,,0.00,,2013-03-15 09:42:00,
2013-03-15 01:52:00,3.0,-10.0,30.09,NNW,331,0.0,0.0,53,0.00,,,0.00,,2013-03-15 09:52:00,
2013-03-15 02:02:00,2.0,-11.0,30.09,NNW,332,0.0,1.0,53,0.00,,,0.00,,2013-03-15 10:02:00,
2013-03-15 02:12:00,2.0,-11.0,30.09,NNW,332,0.0,1.0,53,0.00,,,0.00,,2013-03-15 10:12:00,
2013-03-15 02:23:00,4.0,-10.0,30.09,NNW,332,0.0,1.0,51,0.00,,,0.00,,2013-03-15 10:23:00,
2013-03-15 02:32:00,4.0,-10.0,30.08,NNW,332,0.0,0.0,52,0.00,,,0.00,,2013-03-15 10:32:00,
2013-03-15 02:42:00,4.0,-10.0,30.08,NNW,332,0.0,0.0,52,0.00,,,0.00,,2013-03-15 10:42:00,
2013-03-15 02:52:00,1.0,-10.0,30.08,NNW,331,0.0,0.0,59,0.00,,,0.00,,2013-03-15 10:52:00,
2013-03-15 03:02:00,0.0,-11.0,30.08,NNW,331,0.0,0.0,59,0.00,,,0.00,,2013-03-15 11:02:00,
2013-03-15 03:12:00,0.0,-11.0,30.08,NNW,331,0.0,0.0,59,0.00,,,0.00,,2013-03-15 11:12:00,
2013-03-15 03:22:00,0.0,-10.0,30.08,NNW,332,0.0,0.0,62,0.00,,,0.00,,2013-03-15 11:22:00,
2013-03-15 03:32:00,0.0,-11.0,30.07,NNW,331,0.0,0.0,60,0.00,,,0.00,,2013-03-15 11:32:00,
2013-03-15 03:42:00,0.0,-11.0,30.07,NNW,331,0.0,0.0,60,0.00,,,0.00,,2013-03-15 11:42:00,
2013-03-15 03:52:00,0.0,-10.0,30.07,NNW,332,0.0,0.0,62,0.00,,,0.00,,2013-03-15 11:52:00,
2013-03-15 04:02:00,0.0,-9.0,30.07,NNW,332,0.0,0.0,64,0.00,,,0.00,,2013-03-15 12:02:00,
2013-03-15 04:12:00,0.0,-9.0,30.07,NNW,332,0.0,0.0,64,0.00,,,0.00,,2013-03-15 12:12:00,
2013-03-15 04:22:00,-1.0,-10.0,30.06,NNW,331,0.0,0.0,65,0.00,,,0.00,,2013-03-15 12:22:00,
2013-03-15 04:32:00,-1.0,-10.0,30.06,NNW,331,0.0,0.0,65,0.00,,,0.00,,2013-03-15 12:32:00,
2013-03-15 04:42:00,-1.0,-10.0,30.06,NNW,331,0.0,0.0,65,0.00,,,0.00,,2013-03-15 12:42:00,
2013-03-15 04:52:00,-1.0,-10.0,30.06,NNW,332,0.0,0.0,65,0.00,,,0.00,,2013-03-15 12:52:00,
2013-03-15 05:02:00,-1.0,-10.0,30.05,NNW,332,0.0,0.0,66,0.00,,,0.00,,2013-03-15 13:02:00,
2013-03-15 05:12:00,-1.0,-10.0,30.05,NNW,332,0.0,0.0,66,0.00,,,0.00,,2013-03-15 13:12:00,
2013-03-15 05:22:00,0.0,-10.0,30.04,NNW,332,0.0,0.0,61,0.00,,,0.00,,2013-03-15 13:22:00,
2013-03-15 05:32:00,0.0,-9.0,30.04,NNW,332,0.0,0.0,64,0.00,,,0.00,,2013-03-15 13:32:00,
2013-03-15 05:42:00,0.0,-9.0,30.04,NNW,332,0.0,0.0,64,0.00,,,0.00,,2013-03-15 13:42:00,
2013-03-15 05:52:00,-1.0,-10.0,30.04,NNW,332,0.0,0.0,64,0.00,,,0.00,,2013-03-15 13:52:00,
2013-03-15 06:02:00,-2.0,-11.0,30.03,NNW,332,0.0,0.0,65,0.00,,,0.00,,2013-03-15 14:02:00,
2013-03-15 06:11:00,-2.0,-11.0,30.03,NNW,332,0.0,0.0,65,0.00,,,0.00,,2013-03-15 14:11:00,
2013-03-15 06:22:00,-2.0,-11.0,30.03,NNW,332,0.0,0.0,65,0.00,,,0.00,,2013-03-15 14:22:00,
2013-03-15 06:32:00,-1.0,-10.0,30.03,NNW,331,0.0,0.0,64,0.00,,,0.00,,2013-03-15 14:32:00,
2013-03-15 06:42:00,-1.0,-10.0,30.03,NNW,331,0.0,0.0,64,0.00,,,0.00,,2013-03-15 14:42:00,
2013-03-15 06:52:00,-1.0,-10.0,30.03,NNW,332,0.0,0.0,64,0.00,,,0.00,,2013-03-15 14:52:00,
2013-03-15 07:02:00,-1.0,-11.0,30.03,NNW,332,0.0,0.0,63,0.00,,,0.00,,2013-03-15 15:02:00,
2013-03-15 07:12:00,-1.0,-11.0,30.03,NNW,332,0.0,0.0,63,0.00,,,0.00,,2013-03-15 15:12:00,
2013-03-15 07:22:00,-1.0,-11.0,30.02,NNW,332,0.0,0.0,62,0.00,,,0.00,,2013-03-15 15:22:00,
2013-03-15 07:32:00,-2.0,-12.0,30.02,NNW,331,0.0,0.0,61,0.00,,,0.00,,2013-03-15 15:32:00,
2013-03-15 07:42:00,-2.0,-12.0,30.02,NNW,331,0.0,0.0,61,0.00,,,0.00,,2013-03-15 15:42:00,
2013-03-15 07:53:00,-3.0,-11.0,30.02,NNW,332,0.0,0.0,66,0.00,,,0.00,,2013-03-15 15:53:00,
2013-03-15 08:02:00,-3.0,-11.0,30.01,NNW,332,0.0,0.0,66,0.00,,,0.00,,2013-03-15 16:02:00,
2013-03-15 08:12:00,-3.0,-11.0,30.01,NNW,332,0.0,0.0,66,0.00,,,0.00,,2013-03-15 16:12:00,
2013-03-15 08:22:00,-3.0,-11.0,30.01,NNW,331,0.0,0.0,67,0.00,,,0.00,,2013-03-15 16:22:00,
2013-03-15 08:32:00,-2.0,-11.0,30.01,NNW,332,0.0,0.0,65,0.00,,,0.00,,2013-03-15 16:32:00,
2013-03-15 08:42:00,-2.0,-11.0,30.01,NNW,332,0.0,0.0,65,0.00,,,0.00,,2013-03-15 16:42:00,
2013-03-15 08:52:00,-2.0,-11.0,30.01,NNW,332,0.0,0.0,64,0.00,,,0.00,,2013-03-15 16:52:00,
2013-03-15 09:01:00,-1.0,-10.0,30.01,NNW,332,0.0,0.0,64,0.00,,,0.00,,2013-03-15 17:01:00,
2013-03-15 09:12:00,-1.0,-10.0,30.01,NNW,332,0.0,0.0,64,0.00,,,0.00,,2013-03-15 17:12:00,
2013-03-15 09:22:00,-2.0,-11.0,30.00,NNW,332,0.0,0.0,66,0.00,,,0.00,,2013-03-15 17:22:00,
2013-03-15 09:32:00,-1.0,-9.0,30.01,NNW,332,0.0,0.0,68,0.00,,,0.00,,2013-03-15 17:32:00,
2013-03-15 09:52:00,0.0,-9.0,30.00,NNW,331,0.0,0.0,66,0.00,,,0.00,,2013-03-15 17:52:00,
2013-03-15 10:02:00,1.0,-9.0,30.00,NNW,332,0.0,0.0,62,0.00,,,0.00,,2013-03-15 18:02:00,
2013-03-15 10:12:00,1.0,-9.0,30.00,NNW,332,0.0,0.0,62,0.00,,,0.00,,2013-03-15 18:12:00,
2013-03-15 10:22:00,1.0,-10.0,29.99,NNW,331,0.0,0.0,58,0.00,,,0.00,,2013-03-15 18:22:00,
2013-03-15 10:32:00,2.0,-10.0,29.99,NNW,332,0.0,0.0,56,0.00,,,0.00,,2013-03-15 18:32:00,
2013-03-15 10:42:00,2.0,-10.0,29.99,NNW,332,0.0,0.0,56,0.00,,,0.00,,2013-03-15 18:42:00,
2013-03-15 10:52:00,3.0,-9.0,29.98,NNW,332,0.0,0.0,57,0.00,,,0.00,,2013-03-15 18:52:00,
2013-03-15 11:01:00,3.0,-9.0,29.98,NNW,332,0.0,0.0,57,0.00,,,0.00,,2013-03-15 19:01:00,
2013-03-15 11:12:00,3.0,-9.0,29.98,NNW,332,0.0,0.0,57,0.00,,,0.00,,2013-03-15 19:12:00,
2013-03-15 11:22:00,3.0,-9.0,29.98,NNW,332,0.0,0.0,57,0.00,,,0.00,,2013-03-15 19:22:00,
2013-03-15 11:31:00,11.0,-8.0,29.97,ENE,75,0.0,1.0,41,0.00,,,0.00,,2013-03-15 19:31:00,
2013-03-15 11:42:00,11.0,-8.0,29.97,ENE,75,0.0,1.0,41,0.00,,,0.00,,2013-03-15 19:42:00,
2013-03-15 11:52:00,11.0,-8.0,29.97,ENE,75,0.0,1.0,41,0.00,,,0.00,,2013-03-15 19:52:00,
2013-03-15 12:02:00,13.0,-8.0,29.96,NE,34,0.0,3.0,38,0.00,,,0.00,,2013-03-15 20:02:00,
2013-03-15 12:12:00,13.0,-8.0,29.96,NE,34,0.0,3.0,38,0.00,,,0.00,,2013-03-15 20:12:00,
2013-03-15 12:22:00,13.0,-7.0,29.96,East,98,1.0,5.0,39,0.00,,,0.00,,2013-03-15 20:22:00,
2013-03-15 12:31:00,15.0,-7.0,29.95,NNE,22,2.0,7.0,36,0.00,,,0.00,,2013-03-15 20:31:00,
2013-03-15 12:42:00,15.0,-7.0,29.95,NNE,22,2.0,7.0,36,0.00,,,0.00,,2013-03-15 20:42:00,
2013-03-15 12:52:00,17.0,-7.0,29.95,NNE,15,1.0,4.0,33,0.00,,,0.00,,2013-03-15 20:52:00,
2013-03-15 13:02:00,17.0,-8.0,29.94,North,11,1.0,5.0,32,0.00,,,0.00,,2013-03-15 21:02:00,
2013-03-15 13:11:00,17.0,-8.0,29.94,North,11,1.0,5.0,32,0.00,,,0.00,,2013-03-15 21:11:00,
2013-03-15 13:22:00,18.0,-7.0,29.93,NNE,25,1.0,5.0,31,0.00,,,0.00,,2013-03-15 21:22:00,
2013-03-15 13:32:00,19.0,-7.0,29.92,NW,317,2.0,8.0,30,0.00,,,0.00,,2013-03-15 21:32:00,
2013-03-15 13:42:00,19.0,-7.0,29.92,NW,317,2.0,8.0,30,0.00,,,0.00,,2013-03-15 21:42:00,
2013-03-15 13:52:00,20.0,-7.0,29.91,NW,322,3.0,8.0,29,0.00,,,0.00,,2013-03-15 21:52:00,
2013-03-15 14:02:00,20.0,-8.0,29.91,North,5,2.0,11.0,28,0.00,,,0.00,,2013-03-15 22:02:00,
2013-03-15 14:22:00,21.0,-8.0,29.91,NNE,20,2.0,8.0,27,0.00,,,0.00,,2013-03-15 22:22:00,
2013-03-15 14:32:00,21.0,-8.0,29.90,ENE,67,4.0,9.0,26,0.00,,,0.00,,2013-03-15 22:32:00,
2013-03-15 14:42:00,21.0,-8.0,29.90,ENE,67,4.0,9.0,26,0.00,,,0.00,,2013-03-15 22:42:00,
2013-03-15 14:52:00,22.0,-6.0,29.90,NNE,14,3.0,11.0,28,0.00,,,0.00,,2013-03-15 22:52:00,
2013-03-15 15:02:00,22.0,-7.0,29.89,NNE,13,3.0,8.0,27,0.00,,,0.00,,2013-03-15 23:02:00,
2013-03-15 15:12:00,22.0,-7.0,29.89,NNE,13,3.0,8.0,27,0.00,,,0.00,,2013-03-15 23:12:00,
2013-03-15 15:22:00,22.0,-8.0,29.88,NNE,14,5.0,13.0,26,0.00,,,0.00,,2013-03-15 23:22:00,
2013-03-15 15:32:00,22.0,-7.0,29.88,NE,40,4.0,10.0,27,0.00,,,0.00,,2013-03-15 23:32:00,
2013-03-15 15:42:00,22.0,-7.0,29.88,NE,40,4.0,10.0,27,0.00,,,0.00,,2013-03-15 23:42:00,
2013-03-15 15:53:00,22.0,-6.0,29.88,West,268,3.0,13.0,28,0.00,,,0.00,,2013-03-15 23:53:00,
2013-03-15 16:02:00,22.0,-6.0,29.88,NE,47,4.0,10.0,28,0.00,,,0.00,,2013-03-16 00:02:00,
2013-03-15 16:12:00,22.0,-6.0,29.88,NE,47,4.0,10.0,28,0.00,,,0.00,,2013-03-16 00:12:00,
2013-03-15 16:22:00,22.0,-8.0,29.87,NE,37,3.0,12.0,26,0.00,,,0.00,,2013-03-16 00:22:00,
2013-03-15 16:32:00,22.0,-6.0,29.86,NE,47,2.0,12.0,28,0.00,,,0.00,,2013-03-16 00:32:00,
2013-03-15 16:42:00,22.0,-6.0,29.86,NE,47,2.0,12.0,28,0.00,,,0.00,,2013-03-16 00:42:00,
2013-03-15 16:52:00,22.0,-5.0,29.86,NE,51,3.0,13.0,29,0.00,,,0.00,,2013-03-16 00:52:00,
2013-03-15 17:01:00,22.0,-7.0,29.86,NNW,347,1.0,5.0,27,0.00,,,0.00,,2013-03-16 01:01:00,
2013-03-15 17:12:00,22.0,-7.0,29.86,NNW,347,1.0,5.0,27,0.00,,,0.00,,2013-03-16 01:12:00,
2013-03-15 17:21:00,22.0,-6.0,29.85,NNW,340,1.0,5.0,28,0.00,,,0.00,,2013-03-16 01:21:00,
2013-03-15 17:32:00,22.0,-5.0,29.85,WNW,288,1.0,6.0,29,0.00,,,0.00,,2013-03-16 01:32:00,
2013-03-15 17:42:00,22.0,-5.0,29.85,WNW,288,1.0,6.0,29,0.00,,,0.00,,2013-03-16 01:42:00,
2013-03-15 17:52:00,21.0,-5.0,29.85,NNW,334,0.0,5.0,31,0.00,,,0.00,,2013-03-16 01:52:00,
2013-03-15 18:02:00,21.0,-6.0,29.85,NE,49,2.0,9.0,29,0.00,,,0.00,,2013-03-16 02:02:00,
2013-03-15 18:11:00,21.0,-6.0,29.85,NE,49,2.0,9.0,29,0.00,,,0.00,,2013-03-16 02:11:00,
2013-03-15 18:32:00,20.0,-5.0,29.85,WNW,296,0.0,3.0,32,0.00,,,0.00,,2013-03-16 02:32:00,
2013-03-15 18:42:00,20.0,-5.0,29.85,WNW,296,0.0,3.0,32,0.00,,,0.00,,2013-03-16 02:42:00,
2013-03-15 18:52:00,19.0,-6.0,29.85,WNW,298,0.0,4.0,32,0.00,,,0.00,,2013-03-16 02:52:00,
2013-03-15 19:02:00,19.0,-5.0,29.85,NNW,333,0.0,2.0,34,0.00,,,0.00,,2013-03-16 03:02:00,
2013-03-15 19:11:00,19.0,-5.0,29.85,NNW,333,0.0,2.0,34,0.00,,,0.00,,2013-03-16 03:11:00,
2013-03-15 19:21:00,18.0,-6.0,29.85,NE,44,0.0,4.0,34,0.00,,,0.00,,2013-03-16 03:21:00,
2013-03-15 19:32:00,17.0,-6.0,29.85,WNW,286,0.0,3.0,35,0.00,,,0.00,,2013-03-16 03:32:00,
2013-03-15 19:42:00,17.0,-6.0,29.85,WNW,286,0.0,3.0,35,0.00,,,0.00,,2013-03-16 03:42:00,
2013-03-15 19:52:00,16.0,-7.0,29.87,ENE,76,1.0,4.0,35,0.00,,,0.00,,2013-03-16 03:52:00,
2013-03-15 20:02:00,16.0,-7.0,29.87,ENE,76,1.0,4.0,35,0.00,,,0.00,,2013-03-16 04:02:00,
2013-03-15 20:12:00,16.0,-7.0,29.87,ENE,76,1.0,4.0,35,0.00,,,0.00,,2013-03-16 04:12:00,
2013-03-15 20:22:00,15.0,-6.0,29.87,ENE,76,0.0,2.0,38,0.00,,,0.00,,2013-03-16 04:22:00,
2013-03-15 20:32:00,14.0,-8.0,29.88,ENE,76,0.0,1.0,36,0.00,,,0.00,,2013-03-16 04:32:00,
2013-03-15 20:42:00,14.0,-8.0,29.88,ENE,76,0.0,1.0,36,0.00,,,0.00,,2013-03-16 04:42:00,
2013-03-15 20:52:00,13.0,-7.0,29.88,ENE,75,0.0,0.0,40,0.00,,,0.00,,2013-03-16 04:52:00,
2013-03-15 21:02:00,12.0,-5.0,29.89,ENE,76,0.0,0.0,45,0.00,,,0.00,,2013-03-16 05:02:00,
2013-03-15 21:12:00,12.0,-5.0,29.89,ENE,76,0.0,0.0,45,0.00,,,0.00,,2013-03-16 05:12:00,
2013-03-15 21:21:00,12.0,-8.0,29.89,NE,44,0.0,2.0,40,0.00,,,0.00,,2013-03-16 05:21:00,
2013-03-15 21:32:00,13.0,-7.0,29.90,NNE,29,0.0,2.0,39,0.00,,,0.00,,2013-03-16 05:32:00,
2013-03-15 21:42:00,13.0,-7.0,29.90,NNE,29,0.0,2.0,39,0.00,,,0.00,,2013-03-16 05:42:00,
2013-03-15 21:52:00,12.0,-8.0,29.90,ENE,70,0.0,2.0,39,0.00,,,0.00,,2013-03-16 05:52:00,
2013-03-15 22:02:00,11.0,-9.0,29.90,North,5,0.0,2.0,40,0.00,,,0.00,,2013-03-16 06:02:00,
2013-03-15 22:12:00,11.0,-9.0,29.90,North,5,0.0,2.0,40,0.00,,,0.00,,2013-03-16 06:12:00,
2013-03-15 22:21:00,10.0,-9.0,29.91,North,360,0.0,2.0,41,0.00,,,0.00,,2013-03-16 06:21:00,
2013-03-15 22:32:00,10.0,-9.0,29.91,North,360,0.0,1.0,41,0.00,,,0.00,,2013-03-16 06:32:00,
2013-03-15 22:42:00,10.0,-9.0,29.91,North,360,0.0,1.0,41,0.00,,,0.00,,2013-03-16 06:42:00,
2013-03-15 22:52:00,8.0,-6.0,29.91,North,5,0.0,0.0,53,0.00,,,0.00,,2013-03-16 06:52:00,
2013-03-15 23:02:00,7.0,-8.0,29.91,North,360,0.0,0.0,50,0.00,,,0.00,,2013-03-16 07:02:00,
2013-03-15 23:12:00,7.0,-8.0,29.91,North,360,0.0,0.0,50,0.00,,,0.00,,2013-03-16 07:12:00,
2013-03-15 23:22:00,6.0,-6.0,29.91,North,5,0.0,0.0,57,0.00,,,0.00,,2013-03-16 07:22:00,
2013-03-15 23:32:00,4.0,-8.0,29.91,North,5,0.0,0.0,57,0.00,,,0.00,,2013-03-16 07:32:00,
2013-03-15 23:42:00,4.0,-8.0,29.91,North,5,0.0,0.0,57,0.00,,,0.00,,2013-03-16 07:42:00,
2013-03-15 23:52:00,3.0,-8.0,29.92,North,5,0.0,0.0,59,0.00,,,0.00,,2013-03-16 07:52:00,